Total_Precipitation_Accumulation
1.49 1.74 2.07 2.46 2.80 3.07 3.36 3.65 3.79 3.80 3.89 4.20 4.30 4.11 3.90 3.76 3.41 3.12 3.09 3.01 2.85 2.76 2.59 2.33 2.34 2.45 2.34 2.23 2.31 2.35 2.31 2.21 2.06 2.01 1.86 1.75 1.63 1.50 1.26 1.08 1.03 1.03 1.03
1.25 1.47 1.79 2.10 2.45 2.73 3.12 3.43 3.67 3.85 3.78 3.70 3.89 3.96 3.91 3.79 3.62 3.37 3.28 3.11 2.94 2.85 2.79 2.68 2.55 2.61 2.56 2.44 2.37 2.41 2.48 2.38 2.33 2.30 2.24 2.08 1.96 1.65 1.36 1.19 1.10 1.07 1.09
1.08 1.25 1.53 1.80 2.10 2.41 2.74 3.07 3.37 3.65 3.89 3.86 4.05 4.17 4.17 3.97 3.71 3.40 3.19 3.05 2.98 2.93 2.81 2.76 2.73 2.72 2.73 2.62 2.50 2.44 2.45 2.47 2.37 2.32 2.46 2.22 1.90 1.66 1.49 1.28 1.17 1.13 1.12
0.99 1.11 1.30 1.55 1.79 2.13 2.39 2.67 3.07 3.41 3.74 3.93 3.93 3.94 4.01 3.81 3.45 3.30 3.32 3.20 2.97 2.88 2.87 2.77 2.72 2.75 2.71 2.64 2.66 2.67 2.54 2.53 2.52 2.43 2.27 2.05 1.79 1.71 1.63 1.47 1.36 1.25 1.17
0.96 1.02 1.15 1.36 1.56 1.88 2.17 2.37 2.68 3.03 3.32 3.40 3.46 3.62 3.73 3.73 3.56 3.47 3.42 3.35 3.07 2.80 2.72 2.72 2.67 2.64 2.65 2.64 2.67 2.70 2.73 2.64 2.55 2.46 2.36 2.24 1.97 1.77 1.74 1.64 1.56 1.55 1.39
0.96 1.04 1.13 1.29 1.40 1.59 1.89 2.16 2.31 2.57 2.82 2.96 3.06 3.21 3.24 3.38 3.43 3.36 3.40 3.42 3.22 2.91 2.71 2.63 2.55 2.52 2.54 2.53 2.59 2.66 2.74 2.69 2.55 2.42 2.25 2.20 2.08 1.90 1.84 1.70 1.55 1.61 1.55
1.09 1.18 1.20 1.32 1.42 1.54 1.62 1.89 2.09 2.23 2.43 2.65 2.81 2.85 2.95 3.05 3.12 3.10 3.14 3.29 3.29 2.99 2.75 2.64 2.58 2.50 2.42 2.47 2.64 2.74 2.73 2.71 2.61 2.51 2.39 2.25 2.08 1.97 2.01 1.98 1.76 1.65 1.54
1.25 1.31 1.34 1.49 1.58 1.64 1.66 1.75 1.87 1.90 2.04 2.26 2.47 2.56 2.71 2.76 2.73 2.71 2.72 2.80 2.93 2.95 2.83 2.73 2.67 2.62 2.54 2.48 2.51 2.56 2.60 2.62 2.57 2.47 2.38 2.30 2.15 2.11 2.11 2.13 2.21 2.11 1.80
1.32 1.42 1.48 1.55 1.55 1.55 1.64 1.74 1.81 1.79 1.76 1.87 2.04 2.18 2.33 2.42 2.39 2.38 2.34 2.40 2.52 2.65 2.76 2.75 2.67 2.58 2.53 2.50 2.48 2.43 2.35 2.41 2.44 2.38 2.29 2.19 2.04 2.05 2.07 2.07 2.18 2.39 2.22
1.23 1.37 1.38 1.39 1.46 1.50 1.57 1.70 1.78 1.81 1.75 1.74 1.81 1.93 2.01 2.07 2.10 2.14 2.14 2.09 2.15 2.20 2.35 2.50 2.56 2.51 2.46 2.42 2.42 2.37 2.24 2.25 2.18 2.14 2.16 2.11 1.98 1.90 1.92 2.01 2.07 2.16 2.25
1.07 1.16 1.17 1.21 1.29 1.35 1.48 1.65 1.76 1.77 1.69 1.76 1.81 1.77 1.83 1.97 1.98 1.93 1.95 1.99 1.97 1.94 2.02 2.13 2.26 2.31 2.31 2.31 2.31 2.23 2.15 2.12 2.07 2.02 1.98 1.93 1.89 1.93 1.89 1.89 1.97 2.06 2.13
0.97 0.99 0.99 0.98 1.00 1.08 1.21 1.34 1.48 1.54 1.55 1.61 1.74 1.69 1.67 1.83 1.92 1.85 1.80 1.83 1.86 1.76 1.75 1.80 1.88 1.97 2.00 2.01 2.05 2.03 1.98 1.94 1.92 1.88 1.88 1.84 1.81 1.81 1.82 1.86 1.89 1.92 1.96
0.78 0.77 0.79 0.84 0.84 0.88 1.00 1.14 1.25 1.34 1.45 1.50 1.57 1.58 1.57 1.64 1.70 1.74 1.71 1.70 1.77 1.75 1.64 1.60 1.66 1.69 1.72 1.75 1.75 1.76 1.77 1.74 1.71 1.73 1.75 1.74 1.81 1.85 1.79 1.77 1.75 1.71 1.72
0.64 0.61 0.61 0.64 0.68 0.73 0.87 1.00 1.07 1.14 1.30 1.39 1.40 1.40 1.43 1.44 1.44 1.48 1.51 1.50 1.52 1.59 1.63 1.51 1.44 1.48 1.54 1.61 1.66 1.67 1.67 1.67 1.68 1.68 1.67 1.66 1.70 1.71 1.71 1.76 1.74 1.70 1.71
0.50 0.48 0.50 0.52 0.56 0.60 0.67 0.81 0.96 1.04 1.18 1.34 1.37 1.36 1.34 1.33 1.31 1.31 1.28 1.29 1.34 1.41 1.50 1.51 1.43 1.35 1.40 1.48 1.56 1.62 1.66 1.65 1.66 1.66 1.64 1.65 1.76 1.81 1.78 1.76 1.74 1.80 1.92
0.47 0.43 0.42 0.43 0.47 0.52 0.57 0.67 0.84 0.95 1.06 1.20 1.28 1.30 1.28 1.28 1.28 1.24 1.22 1.18 1.23 1.30 1.40 1.47 1.50 1.46 1.47 1.73 1.74 1.65 1.64 1.66 1.64 1.61 1.55 1.54 1.62 1.63 1.70 1.73 1.71 1.82 1.99
0.47 0.45 0.45 0.44 0.44 0.46 0.55 0.66 0.78 0.85 0.92 1.00 1.09 1.16 1.17 1.21 1.23 1.22 1.24 1.28 1.30 1.34 1.42 1.49 1.56 1.57 1.64 1.82 1.74 1.73 1.59 1.56 1.56 1.53 1.49 1.44 1.40 1.45 1.34 1.45 1.55 1.58 1.72
0.44 0.45 0.48 0.46 0.45 0.45 0.52 0.64 0.78 0.89 0.96 1.03 1.06 1.07 1.12 1.18 1.23 1.30 1.38 1.46 1.51 1.53 1.59 1.64 1.65 1.67 1.70 1.77 1.69 1.72 1.51 1.43 1.40 1.33 1.26 1.23 1.19 1.21 1.29 1.35 1.44 1.35 1.31
0.48 0.50 0.53 0.54 0.52 0.52 0.54 0.63 0.78 0.89 0.98 1.06 1.11 1.11 1.19 1.29 1.36 1.47 1.55 1.58 1.66 1.65 1.61 1.59 1.56 1.54 1.54 1.58 1.54 1.54 1.37 1.31 1.24 1.17 1.12 1.12 1.08 1.25 1.43 1.43 1.45 1.27 1.14
0.50 0.53 0.55 0.54 0.58 0.62 0.64 0.73 0.88 0.97 1.07 1.15 1.25 1.25 1.27 1.35 1.40 1.45 1.45 1.45 1.46 1.43 1.37 1.33 1.28 1.23 1.21 1.28 1.31 1.34 1.29 1.26 1.13 1.07 1.05 1.16 1.16 1.33 1.49 1.41 1.41 1.35 1.13
0.61 0.62 0.63 0.68 0.75 0.81 0.85 0.96 1.08 1.21 1.26 1.28 1.34 1.33 1.28 1.29 1.28 1.25 1.20 1.16 1.14 1.12 1.09 1.05 1.02 0.97 0.95 1.02 1.09 1.18 1.22 1.29 1.23 1.11 1.01 0.99 1.22 1.37 1.49 1.45 1.34 1.35 1.35
0.57 0.64 0.71 0.77 0.81 0.91 1.01 1.12 1.25 1.31 1.24 1.19 1.18 1.14 1.05 1.03 0.99 0.97 1.01 1.00 0.98 1.03 1.03 1.00 0.97 0.91 0.87 0.91 0.97 1.07 1.20 1.27 1.27 1.18 1.02 1.00 1.22 1.31 1.36 1.36 1.39 1.49 1.50
0.47 0.53 0.63 0.71 0.74 0.82 0.87 0.95 1.00 0.97 0.94 0.93 0.94 0.93 0.90 0.88 0.89 0.88 0.91 0.97 0.97 0.97 0.98 0.97 1.00 0.97 0.91 0.93 1.03 1.08 1.19 1.28 1.25 1.17 1.20 1.25 1.30 1.28 1.22 1.25 1.37 1.41 1.36
0.44 0.47 0.51 0.57 0.64 0.70 0.73 0.76 0.75 0.73 0.76 0.83 0.87 0.89 0.90 0.88 0.89 0.91 0.90 0.94 0.98 1.00 0.97 0.95 0.97 0.96 0.92 0.92 1.00 1.12 1.19 1.27 1.30 1.29 1.27 1.26 1.25 1.27 1.23 1.19 1.20 1.22 1.28
0.43 0.46 0.54 0.61 0.69 0.71 0.73 0.75 0.77 0.76 0.80 0.85 0.90 0.93 0.95 0.92 0.92 0.94 0.96 0.98 1.00 1.06 1.17 1.14 1.08 1.10 1.08 1.02 1.19 1.32 1.31 1.34 1.39 1.44 1.34 1.22 1.16 1.20 1.18 1.13 1.11 1.16 1.25
0.45 0.45 0.50 0.58 0.67 0.68 0.70 0.75 0.80 0.83 0.86 0.88 0.90 0.93 0.96 0.96 0.94 0.91 0.96 1.03 1.04 1.07 1.08 1.09 1.11 1.08 1.12 1.17 1.26 1.32 1.35 1.42 1.52 1.61 1.41 1.17 1.08 1.08 1.06 1.07 1.10 1.13 1.19